Location: The Saddle
(36.8333°N, 80.3417°W)
Time: 08:18:39
(UTC-05:00)

Vanguard 2 Rocket - Pass Details

Date: 17 December 2023
Orbit: 555 x 3309 km, 32.9° (Epoch: 02 March)

Event Time Altitude Azimuth Distance (km) Brightness Sun altitude
Rises 08:54:32 0° 194° (SSW) 3,645 10.4 13.2°
Reaches altitude 10° 08:57:38 10° 175° (S) 3,045 10.5 13.6°
Maximum altitude 09:02:50 19° 133° (SE) 2,978 12.6 14.4°
Drops below altitude 10° 09:10:03 10° 93° (E) 4,441 11.3 15.4°
Sets 09:15:58 0° 80° (E) 6,022 11.6 16.2°
